Preview of NWS' New Version of Forecast
This preview is not operational and should not be used for support decisions.

Regional Weather Roundup (RWR)

Issued by Gray - Portland, ME (GYX)

                            
260 
ASUS41 KGYX 262210
RWRGYX
WEATHER ROUNDUP FOR MAINE AND NEW HAMPSHIRE
NATIONAL WEATHER SERVICE GRAY ME
600 PM EDT TUE MAR 26 2019

MEZ002-005-006-010-012-015-018-020-021-024-026-027-029-262300-
MAINE
  
CITY           SKY/WX    TMP DP  RH WIND       PRES   REMARKS
PORTLAND       FAIR      39   3  22 N10       30.24R                  
SANFORD        FAIR      37   3  24 W14G22    30.24R                  
BAR HARBOR     FAIR      34   0  23 NW9       30.20R                  
WISCASSET      FAIR      38   2  22 VRB3      30.23R                  
ROCKLAND       FAIR      36   1  22 VRB7      30.21                   
FRYEBURG       FAIR      36   2  23 VRB6G16   30.23R                  
LEWISTONAUBURN FAIR      36   2  23 NW13G21   30.22R                  
AUGUSTA        FAIR      35   1  23 NW12G21   30.22R                  
WATERVILLE     FAIR      35   3  26 W10G20    30.18R                  
BANGOR         FAIR      36   2  23 NW14G21   30.18R                  
GREENVILLE       N/A     26  -1  31 NW15G25   30.11R WCI  14          
MILLINOCKET    FAIR      31   1  28 W12G18    30.17R                  
HOULTON        FAIR      30  -1  26 NW13G22   30.11R WCI  20          
PRESQUE ISLE   FAIR      27   2  34 W16G26    30.14R WCI  15          
FRENCHVILLE    MOCLDY    25   2  37 W25       30.09R WCI   9          
CARIBOU        MOCLDY    27   1  32 NW15G26   30.11R WCI  15          
$$

NHZ002-005-008-009-011-012-014-262300-
NEW HAMPSHIRE
  
CITY           SKY/WX    TMP DP  RH WIND       PRES   REMARKS
PORTSMOUTH     SUNNY     40  -1  18 NW10      30.23R                  
ROCHESTER      FAIR      37   3  24 NW12      30.24R                  
NASHUA         FAIR      41   1  18 NW8       30.26R                  
MANCHESTER     FAIR      41  -2  16 NW17G24   30.25R                  
CONCORD        FAIR      38   3  23 NW14G21   30.26R                  
LACONIA        FAIR      36   3  25 W10       30.25R                  
PLYMOUTH       FAIR      35   3  26 W12       30.26R                  
BERLIN         FAIR      31   3  30 W8        30.21R                  
WHITEFIELD     FAIR      34   1  24 NW14      30.23R                  
JAFFREY        FAIR      36   1  22 NW8       30.23R                  
KEENE          FAIR      37  -1  20 NW13      30.27R                  
LEBANON        SUNNY     36   3  25 N8G16     30.26S                  
MT WASHINGTON  SUNNY      3  -8  60 NW55G63     N/A  WCI -28          
$$

VTZ005-007-008-262300-
VERMONT
  
CITY           SKY/WX    TMP DP  RH WIND       PRES   REMARKS
ST JOHNSBURY     N/A     32   3  29 MISG      30.26R                  
MONTPELIER     FAIR      29   4  34 NW13      30.30R WCI  19          
BURLINGTON     FAIR      33   8  35 N9        30.33R                  
$$

MAZ007-012-024-CTZ003-RIZ002-NYZ038-NYZ072-262300-
SOUTHERN NEW ENGLAND AND NY
  
CITY           SKY/WX    TMP DP  RH WIND       PRES   REMARKS
BOSTON         FAIR      39  13  34 E10       30.25R                  
WORCESTER      FAIR      37  -1  20 NW14G25   30.22R                  
NANTUCKET      FAIR      36  14  40 NE14      30.24R                  
PROVIDENCE     FAIR      44   3  18 N15       30.23R                  
HARTFORD       FAIR      44   1  16 N14       30.26R                  
ALBANY         FAIR      42   4  20 W15       30.30R                  
NEW YORK CITY  FAIR      48   2  15 N12       30.25S                  
$$

ANZ081-ANZ082-ANZ150-NHZ014-MEZ023>029-262300-
COASTAL MARINE OBSERVATIONS
  
STATION/POSITION TIME  TEMP    WIND        PRES    WAVE
                       AIR SEA DIR/SP/G            HT/PER
                 (UTC) (F)     (DEG/KT/KT) (MB)    (FT/S)
MOUNT DESERT ROC 2200   34     280/ 14/ 16 1022.7R
MATINICUS ROCK   2100   34     290/ 13/ 14 1022.2F
ISLE OF SHOALS   2100   34     170/  5/  6 1023.6R
CASHES LEDGE BUO 2150   36 39              1023.5R   3/ 4
$$

.............KEY..............
   WCI - WIND CHILL
   TC  - TEMPERATURE IN CELSIUS
   VSB - VISIBILITY IN MILES
   HX  - HEAT INDEX
   FAIR- INDICATES FEW OR NO CLOUDS BELOW 12,000 FT, WITH NO 
         SIGNIFICANT WEATHER AND/OR OBSTRUCTIONS TO VISIBILITY.